User: anonymous   Login
Location: Unspecified
(0.0000°N, 0.0000°E)
Time: 23:30:00
(UTC+01:00)
Language:

Cosmos 1782 Rocket - Orbit

View from above orbital plane
View from above orbital plane
View from above satellite
View from above satellite

Ground track
Ground track

The orbit data is extracted from the following two-line orbital elements,

1 16987U 86074B   15063.80677424  .00000668  00000-0  79732-4 0  9991
2 16987 082.5185 012.6397 0019539 128.9943 251.4033 14.82667902534671
Epoch (UTC): 04 March 2015 19:21:45
Eccentricity: 0.0019539
inclination: 82.5185°
perigee height: 607 km
apogee height: 634 km
right ascension of ascending node: 12.6397°
argument of perigee: 128.9943°
revolutions per day: 14.82667902
mean anomaly at epoch: 251.4033°
orbit number at epoch: 53467

The dashed part of the orbit path shows where the satellite is in the earth's shadow,  

DLR